CEB4735 RPVE-RPMD

Flight info

Callsign CEB4735
Flight time N/A
Altitude 31000
Route KLO8A KLO TR8 BCD TR2 MCT W14 BN W9 RIMAR RIMAR2P
Aircraft A320/M-SDE3FGHIRWY/LB1

Departure

Time 2026-05-09 07:49
Airport Godofredo P. Ramos Airport (RPVE)

Arrival

Time N/A
Airport Francisco Bangoy International Airport (RPMD)
Time Latitude Longitude Altitude Speed Heading
2026-05-09 07:38 11.92706 121.96438 27 ft 0 kts 153°
2026-05-09 07:42 11.92717 121.96432 27 ft 4 kts 153°
2026-05-09 07:42 11.92735 121.96424 27 ft 2 kts 172°
2026-05-09 07:42 11.92747 121.96424 27 ft 2 kts 225°
2026-05-09 07:42 11.92754 121.96433 27 ft 2 kts 239°
2026-05-09 07:43 11.92759 121.96443 27 ft 2 kts 244°
2026-05-09 07:43 11.92761 121.96447 32 ft 0 kts 243°
2026-05-09 07:44 11.92746 121.96417 30 ft 11 kts 243°
2026-05-09 07:45 11.92682 121.96290 29 ft 23 kts 243°
2026-05-09 07:45 11.92658 121.96203 26 ft 10 kts 300°
2026-05-09 07:45 11.92710 121.96169 26 ft 8 kts 330°
2026-05-09 07:45 11.92760 121.96142 27 ft 9 kts 332°
2026-05-09 07:46 11.92805 121.96107 27 ft 7 kts 292°
2026-05-09 07:46 11.92785 121.96052 27 ft 15 kts 244°
2026-05-09 07:46 11.92712 121.95908 26 ft 25 kts 243°
2026-05-09 07:46 11.92632 121.95750 27 ft 25 kts 243°
2026-05-09 07:47 11.92554 121.95595 29 ft 28 kts 243°
2026-05-09 07:47 11.92445 121.95377 25 ft 37 kts 243°
2026-05-09 07:47 11.92330 121.95146 26 ft 32 kts 244°
2026-05-09 07:47 11.92258 121.95047 27 ft 13 kts 219°
2026-05-09 07:48 11.92259 121.94998 27 ft 8 kts 18°
2026-05-09 07:48 11.92276 121.95042 27 ft 0 kts 61°
2026-05-09 07:48 11.92278 121.95045 27 ft 4 kts 61°
2026-05-09 07:49 11.92381 121.95248 24 ft 71 kts 63°
2026-05-09 07:49 11.92710 121.95908 36 ft 134 kts 63°
2026-05-09 07:49 11.93145 121.96791 669 ft 139 kts 64°
2026-05-09 07:49 11.93585 121.97666 1388 ft 138 kts 65°
2026-05-09 07:50 11.94027 121.98541 2003 ft 141 kts 64°
2026-05-09 07:50 11.94505 121.99491 2295 ft 160 kts 63°
2026-05-09 07:50 11.95046 122.00572 2512 ft 182 kts 64°
2026-05-09 07:50 11.95629 122.01801 2741 ft 203 kts 72°
2026-05-09 07:51 11.95651 122.03292 3071 ft 224 kts 106°
2026-05-09 07:51 11.94795 122.04730 3438 ft 251 kts 125°
2026-05-09 07:51 11.93683 122.06157 4112 ft 261 kts 126°
2026-05-09 07:51 11.92526 122.07611 4936 ft 266 kts 126°
2026-05-09 07:52 11.91353 122.09081 5754 ft 269 kts 126°
2026-05-09 07:52 11.90185 122.10554 6541 ft 272 kts 126°
2026-05-09 07:52 11.88993 122.12065 7293 ft 275 kts 126°
2026-05-09 07:52 11.87786 122.13597 8046 ft 278 kts 126°
2026-05-09 07:53 11.86564 122.15150 8799 ft 282 kts 127°
2026-05-09 07:53 11.85331 122.16719 9552 ft 285 kts 127°
2026-05-09 07:53 11.84083 122.18308 10222 ft 289 kts 127°
2026-05-09 07:53 11.82784 122.19969 10465 ft 311 kts 127°
2026-05-09 07:54 11.81388 122.21753 10687 ft 330 kts 127°
2026-05-09 07:54 11.79937 122.23605 11206 ft 337 kts 127°
2026-05-09 07:54 11.78459 122.25483 11836 ft 341 kts 127°
2026-05-09 07:54 11.76961 122.27384 12467 ft 345 kts 127°
2026-05-09 07:55 11.75450 122.29301 13081 ft 349 kts 127°
2026-05-09 07:55 11.73919 122.31244 13694 ft 353 kts 128°
2026-05-09 07:55 11.72374 122.33204 14226 ft 356 kts 127°
2026-05-09 07:55 11.70819 122.35182 14761 ft 359 kts 127°
2026-05-09 07:56 11.69247 122.37174 15304 ft 362 kts 129°
2026-05-09 07:56 11.67425 122.38963 15841 ft 367 kts 141°
2026-05-09 07:56 11.65318 122.40468 16369 ft 371 kts 143°
2026-05-09 07:56 11.63181 122.41968 16889 ft 374 kts 143°
2026-05-09 07:57 11.61031 122.43481 17410 ft 377 kts 143°
2026-05-09 07:57 11.58868 122.45003 17926 ft 379 kts 143°
2026-05-09 07:57 11.56688 122.46539 18385 ft 382 kts 143°
2026-05-09 07:57 11.54522 122.48065 18799 ft 385 kts 143°
2026-05-09 07:58 11.52307 122.49622 19233 ft 388 kts 143°
2026-05-09 07:58 11.50075 122.51190 19658 ft 391 kts 143°
2026-05-09 07:58 11.47829 122.52772 20068 ft 394 kts 143°
2026-05-09 07:58 11.45568 122.54366 20466 ft 397 kts 143°
2026-05-09 07:59 11.43285 122.55974 20882 ft 399 kts 143°
2026-05-09 07:59 11.40991 122.57586 21285 ft 402 kts 143°
2026-05-09 07:59 11.38681 122.59206 21684 ft 405 kts 143°
2026-05-09 07:59 11.36352 122.60838 22085 ft 407 kts 143°
2026-05-09 08:00 11.34007 122.62482 22466 ft 410 kts 143°
2026-05-09 08:00 11.31651 122.64135 22847 ft 413 kts 143°
2026-05-09 08:00 11.29276 122.65802 23227 ft 415 kts 143°
2026-05-09 08:00 11.26886 122.67480 23569 ft 418 kts 143°
2026-05-09 08:01 11.24484 122.69165 23884 ft 420 kts 143°
2026-05-09 08:01 11.22069 122.70862 24208 ft 423 kts 143°
2026-05-09 08:01 11.19674 122.72547 24522 ft 425 kts 144°
2026-05-09 08:01 11.17237 122.74262 24841 ft 427 kts 144°
2026-05-09 08:02 11.14786 122.75981 25153 ft 429 kts 144°
2026-05-09 08:02 11.12311 122.77711 25466 ft 431 kts 144°
2026-05-09 08:02 11.09829 122.79445 25767 ft 434 kts 145°
2026-05-09 08:02 11.07336 122.81188 26069 ft 436 kts 145°
2026-05-09 08:03 11.04832 122.82944 26365 ft 438 kts 145°
2026-05-09 08:03 11.02317 122.84708 26656 ft 440 kts 145°
2026-05-09 08:03 10.99788 122.86478 26941 ft 442 kts 145°
2026-05-09 08:03 10.97250 122.88254 27228 ft 444 kts 146°
2026-05-09 08:04 10.94692 122.90044 27509 ft 446 kts 146°
2026-05-09 08:04 10.92128 122.91839 27795 ft 448 kts 146°
2026-05-09 08:04 10.89551 122.93642 28066 ft 450 kts 146°
2026-05-09 08:04 10.86960 122.95455 28346 ft 453 kts 146°
2026-05-09 08:05 10.84363 122.97273 28621 ft 455 kts 146°
2026-05-09 08:05 10.81752 122.99104 28908 ft 457 kts 146°
2026-05-09 08:05 10.79280 123.01145 29148 ft 460 kts 136°
2026-05-09 08:05 10.77156 123.03597 29401 ft 464 kts 127°
2026-05-09 08:06 10.75460 123.06400 29655 ft 468 kts 117°
2026-05-09 08:06 10.74046 123.09386 29874 ft 470 kts 116°
2026-05-09 08:06 10.72643 123.12353 30091 ft 472 kts 116°
2026-05-09 08:06 10.71209 123.15371 30297 ft 474 kts 117°
2026-05-09 08:07 10.69766 123.18398 30502 ft 476 kts 117°
2026-05-09 08:07 10.68320 123.21428 30722 ft 477 kts 117°
2026-05-09 08:07 10.66873 123.24465 30814 ft 474 kts 117°
2026-05-09 08:07 10.65464 123.27433 30838 ft 460 kts 117°
2026-05-09 08:08 10.64086 123.30332 30842 ft 453 kts 117°
2026-05-09 08:08 10.61304 123.36161 30852 ft 466 kts 117°
2026-05-09 08:09 10.58441 123.42145 30852 ft 480 kts 117°
2026-05-09 08:09 10.55500 123.48327 30843 ft 489 kts 116°
2026-05-09 08:10 10.52531 123.54561 30844 ft 490 kts 117°
2026-05-09 08:10 10.49560 123.60780 30846 ft 489 kts 116°
2026-05-09 08:11 10.46604 123.66954 30842 ft 488 kts 117°
2026-05-09 08:11 10.43640 123.73155 30845 ft 488 kts 116°
2026-05-09 08:12 10.39202 123.82449 30840 ft 488 kts 117°
2026-05-09 08:12 10.36226 123.88657 30848 ft 488 kts 117°
2026-05-09 08:13 10.33255 123.94848 30843 ft 488 kts 117°
2026-05-09 08:13 10.29696 124.00683 30842 ft 485 kts 132°
2026-05-09 08:14 10.25142 124.05743 30844 ft 485 kts 133°
2026-05-09 08:14 10.20602 124.10763 30844 ft 486 kts 133°
2026-05-09 08:15 10.16032 124.15817 30842 ft 486 kts 133°
2026-05-09 08:15 10.12231 124.20030 30846 ft 486 kts 133°
2026-05-09 08:16 10.07668 124.25099 30836 ft 486 kts 133°
2026-05-09 08:16 10.02328 124.31012 30837 ft 486 kts 133°
2026-05-09 08:17 9.98523 124.35216 30829 ft 486 kts 133°
2026-05-09 08:17 9.93951 124.40274 30836 ft 486 kts 133°
2026-05-09 08:18 9.89383 124.45337 30829 ft 486 kts 133°
2026-05-09 08:18 9.84800 124.50405 30823 ft 487 kts 133°
2026-05-09 08:19 9.80215 124.55454 30824 ft 487 kts 134°
2026-05-09 08:19 9.75633 124.60511 30813 ft 487 kts 133°
2026-05-09 08:20 9.71081 124.65547 30827 ft 487 kts 133°
2026-05-09 08:20 9.66504 124.70615 30820 ft 487 kts 133°
2026-05-09 08:21 9.61923 124.75678 30818 ft 487 kts 133°
2026-05-09 08:21 9.57333 124.80747 30817 ft 487 kts 133°
2026-05-09 08:22 9.52750 124.85803 30818 ft 487 kts 133°
2026-05-09 08:22 9.48160 124.90862 30826 ft 487 kts 133°
2026-05-09 08:23 9.43606 124.95885 30823 ft 487 kts 134°
2026-05-09 08:23 9.38992 125.00909 30830 ft 486 kts 134°
2026-05-09 08:24 9.34370 125.05903 30828 ft 486 kts 134°
2026-05-09 08:24 9.29747 125.10912 30823 ft 485 kts 134°
2026-05-09 08:25 9.25147 125.15912 30819 ft 485 kts 134°
2026-05-09 08:25 9.20580 125.20889 30819 ft 485 kts 134°
2026-05-09 08:26 9.15987 125.25879 30824 ft 484 kts 134°
2026-05-09 08:26 9.11382 125.30855 30827 ft 484 kts 134°
2026-05-09 08:27 9.06784 125.35822 30833 ft 483 kts 134°
2026-05-09 08:27 9.02202 125.40795 30834 ft 483 kts 134°
2026-05-09 08:28 8.97484 125.45611 30834 ft 481 kts 143°
2026-05-09 08:28 8.94660 125.47407 30836 ft 479 kts 155°
2026-05-09 08:28 8.91547 125.48575 30839 ft 478 kts 166°
2026-05-09 08:29 8.85025 125.49416 30710 ft 462 kts 174°
2026-05-09 08:29 8.81867 125.49726 30477 ft 449 kts 174°
2026-05-09 08:29 8.78796 125.50030 30253 ft 438 kts 174°
2026-05-09 08:30 8.75802 125.50333 30027 ft 428 kts 174°
2026-05-09 08:30 8.72856 125.50634 29788 ft 423 kts 174°
2026-05-09 08:30 8.69935 125.50935 29525 ft 421 kts 174°
2026-05-09 08:30 8.67066 125.51231 29268 ft 419 kts 174°
2026-05-09 08:31 8.64172 125.51528 29006 ft 417 kts 174°
2026-05-09 08:31 8.61290 125.51823 28747 ft 415 kts 174°
2026-05-09 08:31 8.58432 125.52114 28385 ft 410 kts 174°
2026-05-09 08:31 8.55599 125.52401 27877 ft 407 kts 173°
2026-05-09 08:32 8.52793 125.52685 27386 ft 404 kts 173°
2026-05-09 08:32 8.50002 125.52958 26900 ft 401 kts 173°
2026-05-09 08:32 8.44486 125.53453 25965 ft 395 kts 174°
2026-05-09 08:33 8.41757 125.53689 25512 ft 392 kts 173°
2026-05-09 08:33 8.39047 125.53922 25042 ft 390 kts 173°
2026-05-09 08:33 8.36353 125.54158 24580 ft 388 kts 173°
2026-05-09 08:33 8.33670 125.54396 24111 ft 386 kts 173°
2026-05-09 08:34 8.31027 125.54631 23645 ft 385 kts 173°
2026-05-09 08:34 8.28359 125.54870 23112 ft 385 kts 173°
2026-05-09 08:34 8.25697 125.55110 22623 ft 382 kts 173°
2026-05-09 08:34 8.23055 125.55350 22135 ft 380 kts 173°
2026-05-09 08:35 8.20428 125.55588 21655 ft 378 kts 173°
2026-05-09 08:35 8.17810 125.55823 21175 ft 376 kts 173°
2026-05-09 08:35 8.15207 125.56057 20697 ft 375 kts 173°
2026-05-09 08:35 8.12607 125.56290 20214 ft 374 kts 173°
2026-05-09 08:36 8.10017 125.56522 19737 ft 373 kts 173°
2026-05-09 08:36 8.07431 125.56757 19257 ft 373 kts 173°
2026-05-09 08:36 8.04873 125.56989 18787 ft 373 kts 173°
2026-05-09 08:36 8.02284 125.57219 18316 ft 373 kts 173°
2026-05-09 08:37 7.99693 125.57447 17803 ft 373 kts 173°
2026-05-09 08:37 7.97113 125.57687 17325 ft 371 kts 170°
2026-05-09 08:37 7.94598 125.58196 16855 ft 367 kts 165°
2026-05-09 08:37 7.92102 125.58758 16408 ft 366 kts 165°
2026-05-09 08:38 7.89625 125.59316 15951 ft 364 kts 165°
2026-05-09 08:38 7.87161 125.59871 15505 ft 362 kts 165°
2026-05-09 08:38 7.84703 125.60423 15060 ft 360 kts 165°
2026-05-09 08:38 7.82260 125.60969 14617 ft 359 kts 165°
2026-05-09 08:39 7.79819 125.61513 14162 ft 359 kts 165°
2026-05-09 08:39 7.77383 125.62052 13719 ft 358 kts 165°
2026-05-09 08:39 7.74980 125.62584 13277 ft 356 kts 165°
2026-05-09 08:39 7.72571 125.63121 12808 ft 355 kts 165°
2026-05-09 08:40 7.70200 125.63652 12339 ft 343 kts 165°
2026-05-09 08:40 7.67917 125.64164 11915 ft 329 kts 165°